User: anonymous   Login
Location: Unspecified
(0.0000°N, 0.0000°E)
Time: 05:30:41
(UTC+00:00)
Language:

UGATUSAT - Orbit

View from above orbital plane
View from above orbital plane
View from above satellite
View from above satellite

Ground track
Ground track

The orbit data is extracted from the following two-line orbital elements,

1 35869U 09049E   17344.49954001 +.00000000 +00000-0 +18665-4 0  9994
2 35869 098.4041 357.4486 0004928 003.5931 356.5290 14.22382013427234
Epoch (UTC): 10 December 2017 11:59:20
Eccentricity: 0.0004928
inclination: 98.4041°
perigee height: 814 km
apogee height: 821 km
right ascension of ascending node: 357.4486°
argument of perigee: 3.5931°
revolutions per day: 14.22382013
mean anomaly at epoch: 356.5290°
orbit number at epoch: 42723

The dashed part of the orbit path shows where the satellite is in the earth's shadow,  

DLR